Theta_e
279 279 281 280 280 280 280 281 281 282 283 283 282 284 284 285 288 291 293 292 293 295 296 298 300 304 304 305 310 320 319 312 310 306 303 299 296 295 295 297 296 296 296
276 278 278 278 279 279 279 279 281 282 283 283 283 284 284 286 286 288 289 293 297 300 301 301 301 303 303 305 307 318 317 312 312 309 305 300 300 295 292 292 293 292 293
275 275 276 276 277 277 277 279 280 281 282 283 283 283 284 285 285 288 289 292 295 297 299 299 302 304 306 307 306 312 315 311 311 312 309 302 302 295 291 289 289 289 289
275 276 276 275 275 277 277 278 279 279 281 282 281 280 280 279 283 286 288 290 293 296 295 295 296 299 301 304 306 309 310 315 311 312 311 306 301 300 292 289 286 286 286
274 274 274 276 275 277 275 276 277 278 280 281 280 280 279 281 284 285 285 288 293 294 292 292 293 294 295 298 300 300 303 310 311 312 307 304 300 300 298 290 286 285 283
276 275 275 276 275 275 275 275 276 278 278 279 279 279 279 280 281 282 283 287 291 291 291 289 290 291 291 292 294 297 300 302 308 311 309 303 303 299 295 290 287 288 281
274 273 273 273 274 274 275 275 276 276 277 277 278 278 279 280 280 281 283 285 286 286 287 287 287 288 289 290 291 294 295 295 297 303 308 305 303 300 298 293 286 285 280
274 273 273 272 272 274 275 275 275 275 276 276 276 277 278 280 280 281 282 283 285 285 285 285 285 286 287 288 289 290 289 288 288 287 288 292 293 294 295 294 288 283 280
272 270 272 271 271 272 273 274 274 275 274 274 276 275 276 277 277 279 280 282 283 284 283 283 283 283 285 285 285 286 286 286 285 285 286 286 286 290 291 292 293 295 285
271 271 271 271 272 272 272 273 273 270 270 273 274 277 274 276 275 276 279 280 280 281 281 281 281 281 282 282 283 283 284 285 284 285 285 285 285 287 289 290 290 291 292
268 268 269 270 268 268 267 268 268 267 270 271 273 274 274 274 274 277 278 278 278 278 278 279 279 279 280 281 282 282 283 283 283 283 283 282 284 284 285 287 288 288 288
267 267 267 265 264 265 265 266 265 266 270 271 273 274 274 271 270 274 277 278 278 279 279 279 279 279 279 280 280 279 280 280 280 280 281 280 282 281 282 283 284 284 284
267 264 262 262 263 264 264 264 265 268 270 269 270 272 273 273 271 274 278 278 278 278 278 278 278 278 278 278 279 279 278 278 278 278 278 279 280 279 280 281 280 281 281
262 259 261 262 262 264 264 264 265 266 267 268 269 270 272 273 275 276 277 278 278 278 277 277 277 277 278 278 278 278 278 278 278 278 278 278 278 278 279 279 279 279 278
261 260 259 260 261 264 264 264 264 265 264 267 270 271 272 273 274 275 276 277 278 279 279 278 278 278 278 277 276 277 277 276 277 279 280 281 280 280 279 277 277 277 277
261 261 258 259 263 263 264 265 265 266 267 269 269 269 272 274 274 275 276 276 277 277 278 278 278 278 280 281 280 278 276 276 276 275 276 276 279 282 282 282 281 278 276
261 261 262 262 264 266 272 267 267 271 273 273 274 274 272 273 274 275 276 275 275 276 276 277 278 278 279 281 280 278 277 276 275 275 274 274 274 275 276 279 280 279 280
261 262 263 268 267 270 270 274 274 273 273 273 274 275 275 275 274 274 273 274 275 275 274 274 276 278 279 280 279 278 275 275 274 274 274 273 273 273 273 273 273 273 273
265 265 264 263 266 267 268 271 270 271 272 270 272 273 275 275 275 274 274 274 274 274 275 276 275 275 277 280 279 276 274 274 273 274 274 274 274 277 277 273 272 272 273
263 265 266 265 267 267 269 272 271 271 270 271 272 272 272 272 272 274 275 275 275 275 275 275 275 275 275 278 278 275 275 273 273 273 274 278 276 278 277 272 271 269 269
266 264 265 266 267 267 268 270 269 268 270 271 272 272 272 271 272 271 271 271 271 271 269 270 271 272 274 276 278 277 274 273 272 272 271 272 278 278 277 275 271 271 271
266 270 268 268 269 270 271 271 270 271 270 269 269 268 267 270 270 265 267 267 267 266 266 266 268 269 271 276 278 278 276 275 271 271 270 271 278 278 278 276 275 277 272
270 271 270 270 270 270 270 269 270 269 267 266 264 263 265 269 269 265 266 266 264 265 266 267 266 267 269 270 277 279 279 278 272 271 272 274 276 279 276 279 278 273 264
271 271 269 269 270 269 271 271 269 268 265 265 265 264 264 266 265 269 269 267 265 265 267 266 267 266 266 268 268 270 268 273 274 275 269 273 276 277 274 267 272 266 266
272 271 271 271 271 269 269 268 268 266 266 265 266 266 266 265 266 268 267 269 268 268 265 265 265 262 265 268 273 272 269 267 271 263 260 262 263 265 266 265 265 265 263
272 271 271 271 271 269 269 267 267 266 266 267 266 267 267 265 266 265 266 273 276 277 278 279 274 268 274 278 278 279 280 280 279 265 264 266 267 268 268 268 267 266 265
Wind_Speed
7 5 2 1 3 4 5 5 5 6 6 6 6 4 5 7 6 6 10 11 11 12 11 9 10 8 7 6 6 5 6 2 5 9 4 7 9 10 9 5 5 6 4
5 4 2 3 3 4 6 6 6 6 5 5 6 5 7 7 7 8 10 11 11 11 10 12 10 9 6 7 5 7 4 2 6 4 5 1 4 4 6 5 6 6 4
7 4 5 5 3 5 6 6 6 7 7 8 5 7 8 8 7 7 8 8 11 14 7 10 7 6 5 5 3 5 7 6 5 7 5 4 3 4 2 6 6 6 4
3 4 5 4 4 5 5 6 7 9 9 6 7 9 8 9 8 8 9 10 10 6 7 9 10 5 2 3 1 2 1 3 7 4 3 3 6 5 2 3 4 4 5
4 6 5 3 4 5 5 5 7 8 8 8 7 7 11 8 8 9 12 12 10 5 6 8 9 7 3 3 4 4 3 2 1 1 3 2 1 5 3 4 1 3 4
5 5 3 3 4 5 6 6 8 7 8 7 8 8 12 11 9 10 9 8 5 5 5 6 7 8 4 3 3 3 2 4 3 5 2 2 4 5 3 4 3 1 1
5 4 5 5 6 6 6 7 7 10 8 8 8 8 10 10 12 11 8 8 6 3 4 5 6 6 5 4 5 3 3 4 4 2 4 4 2 3 4 4 3 3 1
5 4 4 5 6 9 8 8 8 10 9 9 9 7 8 6 7 8 8 7 5 4 4 4 5 6 3 2 3 3 3 2 3 1 1 1 1 2 2 6 7 3 2
5 4 5 5 6 6 7 7 9 9 8 9 7 7 5 6 6 7 8 6 4 4 3 4 2 5 3 2 3 2 4 3 1 1 2 4 3 1 3 2 3 7 6
4 3 5 5 5 6 7 7 7 7 7 7 6 6 5 5 5 5 5 5 4 3 4 5 4 5 2 1 2 5 2 2 3 1 5 2 1 3 3 3 0 2 4
4 3 5 5 5 6 5 6 6 6 7 6 5 5 5 5 4 3 3 3 3 3 3 1 1 3 3 7 2 8 5 1 5 6 5 4 5 5 2 1 2 2 3
3 4 5 6 6 6 6 5 6 6 6 5 5 5 4 4 3 3 3 4 3 3 2 3 3 3 7 5 7 8 5 3 4 2 5 5 4 7 4 3 3 5 4
3 4 5 6 6 6 6 6 5 5 5 5 4 4 4 3 3 5 5 5 5 5 5 6 5 7 6 8 7 8 3 6 6 6 6 5 5 6 4 4 5 4 3
6 4 6 5 6 5 5 5 5 4 4 4 4 4 5 5 5 5 6 5 4 6 7 7 7 7 8 7 8 6 7 8 8 9 9 7 8 8 5 5 6 5 7
5 5 5 5 5 5 5 5 4 4 4 4 4 4 4 5 5 7 7 7 7 6 6 7 7 7 6 5 8 8 9 9 10 10 11 10 11 15 10 5 6 7 8
7 7 5 5 6 5 5 4 4 4 4 5 4 3 3 4 5 6 7 7 8 7 8 8 7 8 7 17 16 9 7 8 8 10 8 8 11 18 21 20 16 9 8
6 7 7 6 5 5 4 3 3 4 4 5 4 4 4 4 5 5 6 7 6 6 7 7 7 8 8 15 14 13 6 7 7 7 7 8 7 9 9 17 19 15 13
7 7 6 5 5 3 2 3 3 4 4 4 4 4 4 4 4 4 5 4 4 5 4 5 5 7 8 14 13 12 7 7 7 6 5 7 7 6 6 8 8 7 7
7 7 5 4 4 4 4 3 1 1 1 2 3 3 3 3 4 4 4 4 4 4 4 4 5 5 6 10 9 7 5 6 6 5 5 5 5 9 9 6 7 6 5
4 7 6 3 5 5 3 4 4 3 3 3 2 1 1 2 2 2 2 2 3 4 4 5 5 5 4 5 6 4 3 5 3 4 4 6 5 7 6 4 4 4 3
7 4 5 7 7 4 3 4 3 5 4 3 3 2 2 3 4 3 0 2 2 3 4 3 3 4 4 2 3 3 2 2 2 2 2 3 3 4 4 4 2 2 4
6 7 6 8 6 6 5 6 7 5 3 2 2 3 3 3 2 1 2 2 2 3 1 1 2 2 3 5 1 2 2 4 2 2 2 2 4 4 4 3 4 5 6
8 7 8 7 6 7 7 7 6 4 4 3 3 3 3 3 2 2 2 1 1 0 1 2 2 3 3 3 7 5 5 6 2 1 4 7 8 9 6 9 8 3 3
10 9 9 10 10 8 10 11 4 5 5 6 5 3 3 4 2 2 3 2 3 2 3 3 4 3 3 3 2 3 2 5 4 5 3 6 9 10 9 3 6 1 4
10 10 12 12 14 8 11 8 7 6 6 6 5 5 4 4 4 4 4 5 3 4 4 4 3 3 5 4 8 7 4 3 5 1 1 1 2 3 4 4 5 4 3
9 11 12 12 13 11 11 9 9 9 8 7 6 7 6 4 5 4 5 11 16 15 16 17 10 4 13 15 14 13 14 15 14 0 4 5 7 8 8 7 7 6 8
Wind_Direction
176 156 149 266 281 287 326 323 307 297 311 313 312 297 299 296 286 290 296 293 285 281 277 271 273 266 262 260 267 242 191 176 139 106 2 44 39 24 54 48 55 65 64
171 183 257 273 284 297 302 307 301 292 293 291 295 296 299 286 293 288 278 273 291 297 297 278 262 254 253 256 258 251 196 150 210 130 123 140 45 51 21 35 61 55 48
194 241 290 292 291 294 305 301 304 303 299 291 295 295 296 293 295 291 297 298 309 302 311 316 287 249 224 246 232 256 255 180 210 172 123 151 156 113 354 25 42 51 50
218 278 292 289 277 298 315 313 311 308 303 303 297 293 289 291 294 301 299 302 298 321 345 339 321 310 332 304 297 320 359 215 181 147 101 48 132 136 188 32 358 39 58
258 292 292 276 311 326 309 305 302 298 296 289 287 291 293 288 290 295 297 296 291 352 355 348 327 315 352 356 325 321 343 306 276 105 124 70 63 90 145 140 253 19 22
292 302 287 304 318 315 314 313 304 295 299 290 293 285 288 292 289 290 295 286 321 318 335 344 332 310 343 2 328 304 18 352 297 206 143 169 193 148 149 112 114 153 3
301 283 288 314 314 312 316 309 316 307 299 298 295 289 289 289 288 288 286 293 298 299 324 341 330 298 305 352 329 279 51 22 313 344 212 224 211 125 108 107 119 128 182
268 271 285 300 304 315 314 313 309 304 308 303 297 293 283 287 286 288 285 284 290 297 327 339 310 279 344 1 336 332 81 61 300 91 51 322 140 60 120 153 143 123 176
275 278 298 299 302 297 301 310 306 305 304 300 299 291 290 287 285 287 282 283 299 302 308 242 288 316 338 340 60 18 318 23 69 105 70 77 352 245 108 285 145 148 164
286 300 297 302 299 302 307 309 305 292 289 297 294 306 293 293 298 290 290 308 307 336 321 11 349 267 27 37 114 99 324 357 300 101 112 120 128 56 51 116 39 80 131
277 268 289 299 296 297 311 307 307 308 307 308 304 307 305 309 312 309 314 322 328 359 25 317 261 20 30 43 76 73 69 47 37 10 54 47 83 89 26 100 64 52 94
261 266 301 297 310 309 312 308 312 318 308 308 312 320 321 321 332 335 2 355 1 8 28 21 62 75 64 53 56 77 54 92 97 85 78 55 57 62 52 57 79 83 44
288 316 315 311 306 310 315 320 314 316 313 320 332 350 344 340 348 13 29 16 10 22 29 46 42 58 68 79 56 63 73 86 77 84 84 66 93 83 73 74 77 79 93
284 290 295 296 309 312 306 314 326 318 329 339 4 8 6 7 22 27 29 38 29 38 47 47 51 47 52 73 89 111 104 90 77 67 68 65 60 70 77 82 85 97 92
287 267 276 305 310 310 309 312 322 334 329 355 4 0 8 17 23 37 38 42 39 44 53 64 64 76 84 84 80 74 77 79 73 68 69 72 85 90 84 82 86 98 96
254 256 266 277 281 278 280 303 330 334 343 359 354 4 23 46 41 46 48 50 47 44 50 54 61 61 71 83 86 84 87 86 83 79 67 56 61 75 79 81 82 87 111
236 235 238 236 254 266 266 298 315 332 353 353 0 8 16 45 43 53 58 55 52 55 51 57 68 75 79 90 94 88 82 84 78 86 89 80 65 62 72 76 74 69 81
230 231 229 240 250 264 274 294 346 5 356 348 5 13 21 40 41 48 50 42 55 60 45 41 48 87 91 91 93 93 85 84 73 72 79 93 94 89 93 90 81 72 69
206 207 202 209 253 259 263 272 317 270 317 327 3 11 38 54 43 50 38 26 33 39 42 49 47 49 84 108 112 97 80 80 73 68 66 78 91 113 116 100 98 88 67
186 196 198 215 235 241 242 244 253 262 266 266 232 235 76 59 68 83 86 28 21 42 33 49 35 45 74 115 118 102 91 93 65 54 61 101 104 109 114 108 138 128 144
197 168 174 210 226 216 199 232 239 244 239 259 257 256 222 170 172 165 29 113 84 75 44 45 16 24 15 5 101 92 46 54 54 32 1 342 122 117 118 120 104 157 139
184 192 195 222 228 214 204 235 236 227 201 210 247 265 292 291 322 340 347 23 108 122 122 53 327 318 329 344 310 208 190 183 151 207 229 251 228 221 230 185 217 215 147
199 184 198 218 223 213 204 222 237 184 182 198 242 257 284 270 205 176 201 152 118 113 295 316 314 304 318 318 296 270 241 231 200 221 244 243 254 253 264 257 239 246 126
206 193 188 212 227 208 216 228 199 183 178 213 227 223 237 256 248 252 204 203 203 217 225 228 245 254 269 260 260 263 294 300 265 237 270 261 255 247 250 271 269 167 191
197 189 203 211 223 202 214 208 201 173 204 215 221 225 216 226 242 228 215 225 223 198 209 232 215 220 265 248 236 229 235 234 243 110 22 269 264 264 263 254 241 240 213
195 200 210 215 220 204 214 205 188 182 193 216 224 225 219 215 222 229 276 252 253 251 252 257 241 218 248 276 274 267 262 253 244 186 227 241 238 241 244 241 244 227 226